Location: アルンシュタイン
(50.0000°N, 10.0000°E)
Time: 15:30:50
(UTC+02:00)

Vanguard 1 - Pass Details

Date: 17 September 2024
Orbit: 649 x 3825 km, 34.3° (Epoch: 02 October)

Event Time Altitude Azimuth Distance (km) Brightness Sun altitude
Rises 13:35:13 0° 232° (SW) 6,436 14.7 41.8°
Reaches altitude 10° 13:41:02 10° 222° (SW) 4,825 14.4 41.6°
Maximum altitude 13:50:10 25° 174° (S) 2,772 13.9 41.4°
Drops below altitude 10° 13:56:10 10° 122° (ESE) 3,053 12.9 41.1°
Sets 13:58:53 0° 108° (ESE) 3,705 13.1 41.0°
